When you browse on this site, cookies collect data to enhance your experience and personalize the content and advertising you see.
Visit our Privacy Policy to learn more. By continuing to use the site, you agree to this use of cookies and data.

Hourly Weather Voroshilovo

Today, 14 July, Tuesday

Time Temperature Precipitation Wind Pressure Humidity
00:00 +11°C° 0 mm 1 mps 754 mmHg 92%
01:00 +10°C° 0 mm 1 mps 755 mmHg 93%
02:00 +10°C° 0 mm 1 mps 755 mmHg 95%
03:00 +10°C° 0 mm 1 mps 755 mmHg 92%
04:00 +10°C° 0 mm 1 mps 755 mmHg 89%
05:00 +11°C° 0 mm 1 mps 755 mmHg 85%
06:00 +13°C° 0 mm 2 mps 755 mmHg 76%
07:00 +15°C° 0 mm 2 mps 755 mmHg 66%
08:00 +17°C° 0 mm 2 mps 755 mmHg 57%
09:00 +18°C° 0 mm 2 mps 755 mmHg 52%
10:00 +20°C° 0 mm 2 mps 755 mmHg 47%
11:00 +21°C° 0 mm 2 mps 755 mmHg 41%
12:00 +21°C° 0 mm 2 mps 755 mmHg 41%
13:00 +21°C° 0 mm 3 mps 755 mmHg 40%
14:00 +21°C° 0 mm 3 mps 755 mmHg 39%
15:00 +21°C° 0 mm 3 mps 755 mmHg 39%
16:00 +21°C° 0 mm 3 mps 755 mmHg 38%
17:00 +21°C° 0 mm 3 mps 755 mmHg 37%
18:00 +19°C° 0 mm 3 mps 755 mmHg 46%
19:00 +17°C° 0 mm 2 mps 755 mmHg 55%
20:00 +15°C° 0 mm 2 mps 755 mmHg 64%
21:00 +14°C° 0 mm 2 mps 754 mmHg 70%
22:00 +13°C° 0 mm 2 mps 754 mmHg 76%
23:00 +12°C° 0 mm 2 mps 754 mmHg 82%

Tomorrow, 15 July, Wednesday

Time Temperature Precipitation Wind Pressure Humidity
00:00 +10°C° 0 mm 2 mps 754 mmHg 84%
01:00 +10°C° 0 mm 2 mps 754 mmHg 87%
02:00 +10°C° 0 mm 1 mps 754 mmHg 89%
03:00 +11°C° 0 mm 1 mps 754 mmHg 88%
04:00 +12°C° 0 mm 1 mps 754 mmHg 87%
05:00 +12°C° 0 mm 2 mps 754 mmHg 86%
06:00 +14°C° 0 mm 2 mps 754 mmHg 76%
07:00 +16°C° 0 mm 2 mps 754 mmHg 67%
08:00 +18°C° 0 mm 3 mps 754 mmHg 57%
09:00 +19°C° 0 mm 3 mps 754 mmHg 51%
10:00 +20°C° 0 mm 3 mps 754 mmHg 46%
11:00 +21°C° 0 mm 3 mps 753 mmHg 41%
12:00 +22°C° 0 mm 4 mps 753 mmHg 41%
13:00 +22°C° 0 mm 4 mps 753 mmHg 41%
14:00 +22°C° 0 mm 4 mps 753 mmHg 41%
15:00 +22°C° 0 mm 4 mps 753 mmHg 42%
16:00 +22°C° 0 mm 4 mps 753 mmHg 44%
17:00 +22°C° 0 mm 4 mps 753 mmHg 46%
18:00 +20°C° 0 mm 3 mps 753 mmHg 53%
19:00 +19°C° 0 mm 3 mps 753 mmHg 60%
20:00 +17°C° 0 mm 2 mps 753 mmHg 67%
21:00 +16°C° 0 mm 2 mps 753 mmHg 71%
22:00 +15°C° 0 mm 2 mps 753 mmHg 76%
23:00 +14°C° 0 mm 2 mps 752 mmHg 80%

Day after tomorrow, 16 July, Thursday

Time Temperature Precipitation Wind Pressure Humidity
00:00 +14°C° 0 mm 2 mps 752 mmHg 82%
01:00 +13°C° 0 mm 2 mps 752 mmHg 83%
02:00 +13°C° 0 mm 2 mps 752 mmHg 85%
03:00 +13°C° 0 mm 2 mps 752 mmHg 85%
04:00 +14°C° 0 mm 2 mps 752 mmHg 84%
05:00 +14°C° 0 mm 2 mps 752 mmHg 84%
06:00 +16°C° 0 mm 2 mps 752 mmHg 77%
07:00 +17°C° 0 mm 2 mps 752 mmHg 69%
08:00 +19°C° 0 mm 3 mps 752 mmHg 62%
09:00 +20°C° 0 mm 3 mps 752 mmHg 58%
10:00 +21°C° 0 mm 3 mps 752 mmHg 53%
11:00 +22°C° 0 mm 3 mps 752 mmHg 49%
12:00 +24°C° 0 mm 3 mps 752 mmHg 47%
13:00 +24°C° 0 mm 3 mps 752 mmHg 45%
14:00 +24°C° 0 mm 3 mps 752 mmHg 43%
15:00 +24°C° 0 mm 3 mps 752 mmHg 45%
16:00 +24°C° 0 mm 3 mps 752 mmHg 47%
17:00 +22°C° 0 mm 3 mps 752 mmHg 49%
18:00 +21°C° 0 mm 3 mps 752 mmHg 56%
19:00 +19°C° 0 mm 2 mps 752 mmHg 62%
20:00 +18°C° 0 mm 2 mps 752 mmHg 69%
21:00 +16°C° 0 mm 2 mps 752 mmHg 76%
22:00 +15°C° 0 mm 2 mps 753 mmHg 84%
23:00 +13°C° 0 mm 1 mps 753 mmHg 91%

17 July, Friday

Time Temperature Precipitation Wind Pressure Humidity
00:00 +13°C° 0 mm 1 mps 753 mmHg 92%
01:00 +12°C° 0 mm 1 mps 753 mmHg 93%
02:00 +12°C° 0 mm 1 mps 753 mmHg 94%
03:00 +12°C° 0 mm 1 mps 753 mmHg 91%
04:00 +12°C° 0 mm 1 mps 753 mmHg 88%
05:00 +13°C° 0 mm 1 mps 753 mmHg 84%
06:00 +15°C° 0 mm 1 mps 754 mmHg 74%
07:00 +18°C° 0 mm 1 mps 754 mmHg 64%
08:00 +20°C° 0 mm 1 mps 754 mmHg 54%
09:00 +21°C° 0 mm 2 mps 754 mmHg 48%
10:00 +23°C° 0 mm 2 mps 754 mmHg 42%
11:00 +24°C° 0 mm 3 mps 754 mmHg 36%
12:00 +25°C° 0 mm 3 mps 754 mmHg 33%
13:00 +25°C° 0 mm 3 mps 754 mmHg 31%
14:00 +26°C° 0 mm 3 mps 754 mmHg 29%
15:00 +26°C° 0 mm 3 mps 754 mmHg 29%
16:00 +25°C° 0 mm 3 mps 754 mmHg 30%
17:00 +25°C° 0 mm 3 mps 755 mmHg 31%
18:00 +23°C° 0 mm 2 mps 755 mmHg 40%
19:00 +20°C° 0 mm 2 mps 755 mmHg 50%
20:00 +18°C° 0 mm 2 mps 755 mmHg 60%
21:00 +16°C° 0 mm 1 mps 755 mmHg 65%
22:00 +15°C° 0 mm 1 mps 756 mmHg 70%
23:00 +13°C° 0 mm 1 mps 756 mmHg 75%

18 July, Saturday

Time Temperature Precipitation Wind Pressure Humidity
00:00 +12°C° 0 mm 1 mps 756 mmHg 77%
01:00 +11°C° 0 mm 0 mps 757 mmHg 79%
02:00 +10°C° 0 mm 0 mps 757 mmHg 81%
03:00 +11°C° 0 mm 0 mps 757 mmHg 80%
04:00 +11°C° 0 mm 0 mps 757 mmHg 78%
05:00 +13°C° 0 mm 1 mps 757 mmHg 77%
06:00 +16°C° 0 mm 1 mps 758 mmHg 70%
07:00 +19°C° 0 mm 1 mps 758 mmHg 62%
08:00 +22°C° 0 mm 1 mps 758 mmHg 55%
09:00 +23°C° 0 mm 1 mps 758 mmHg 49%
10:00 +25°C° 0 mm 1 mps 758 mmHg 43%
11:00 +27°C° 0 mm 1 mps 758 mmHg 37%
12:00 +27°C° 0 mm 1 mps 758 mmHg 34%
13:00 +28°C° 0 mm 1 mps 758 mmHg 32%
14:00 +28°C° 0 mm 1 mps 758 mmHg 29%
15:00 +28°C° 0 mm 2 mps 758 mmHg 30%
16:00 +28°C° 0 mm 2 mps 758 mmHg 31%
17:00 +27°C° 0 mm 2 mps 758 mmHg 31%
18:00 +25°C° 0 mm 2 mps 758 mmHg 40%
19:00 +23°C° 0 mm 2 mps 758 mmHg 48%
20:00 +19°C° 0 mm 2 mps 758 mmHg 56%
21:00 +18°C° 0 mm 2 mps 758 mmHg 58%
22:00 +18°C° 0 mm 1 mps 758 mmHg 61%
23:00 +15°C° 0 mm 1 mps 759 mmHg 63%

19 July, Sunday

Time Temperature Precipitation Wind Pressure Humidity
00:00 +15°C° 0 mm 1 mps 759 mmHg 64%
01:00 +14°C° 0 mm 1 mps 759 mmHg 65%
02:00 +14°C° 0 mm 1 mps 759 mmHg 66%
03:00 +14°C° 0 mm 1 mps 759 mmHg 65%
04:00 +14°C° 0 mm 1 mps 759 mmHg 65%
05:00 +14°C° 0 mm 0 mps 759 mmHg 65%
06:00 +16°C° 0 mm 0 mps 759 mmHg 59%
07:00 +18°C° 0 mm 0 mps 759 mmHg 52%
08:00 +21°C° 0 mm 0 mps 759 mmHg 46%
09:00 +23°C° 0 mm 0 mps 759 mmHg 42%
10:00 +25°C° 0 mm 0 mps 759 mmHg 37%
11:00 +29°C° 0 mm 1 mps 759 mmHg 33%
12:00 +27°C° 0 mm 0 mps 759 mmHg 32%
13:00 +28°C° 0 mm 0 mps 759 mmHg 30%
14:00 +28°C° 0 mm 0 mps 758 mmHg 28%
15:00 +30°C° 0 mm 1 mps 758 mmHg 30%
16:00 +29°C° 0 mm 1 mps 758 mmHg 32%
17:00 +28°C° 0 mm 1 mps 757 mmHg 34%
18:00 +26°C° 0 mm 1 mps 757 mmHg 43%
19:00 +25°C° 0 mm 1 mps 757 mmHg 53%
20:00 +23°C° 0 mm 1 mps 757 mmHg 62%
21:00 +21°C° 0 mm 1 mps 757 mmHg 66%
22:00 +20°C° 0 mm 1 mps 757 mmHg 70%
23:00 +18°C° 0 mm 1 mps 757 mmHg 74%
Show more